User: anonymous   Login
Location: Newark
(41.7772°N, 74.7403°W)
Time: 09:15:42
(UTC+00:00)
Language:

SR - Orbit

View from above orbital plane
View from above orbital plane
View from above satellite
View from above satellite

Ground track
Ground track

The orbit data is extracted from the following two-line orbital elements,

1    46U 60007B   20150.55604341 -.00000011  00000-0  20939-4 0  9999
2    46  66.6904  97.5699 0205838 147.0907 214.3216 14.49296482136369
Epoch (UTC): 29 May 2020 13:20:42
Eccentricity: 0.0205838
inclination: 66.6904°
perigee height: 581 km
apogee height: 874 km
right ascension of ascending node: 97.5699°
argument of perigee: 147.0907°
revolutions per day: 14.49296482
mean anomaly at epoch: 214.3216°
orbit number at epoch: 13636

The dashed part of the orbit path shows where the satellite is in the earth's shadow,  

DLR